Tracking 34719 objects as of 13-Jul-2026
HD Live streaming from Space Station
objects crossing your sky now

SL-14 R/B

Track SL-14 R/B now!
10-day predictions


NORAD ID: 16327
Int'l Code: 1985-113B
Perigee: 605.7 km
Apogee: 630.0 km
Inclination: 82.5 °
Period: 96.9 minutes
Semi major axis: 6988 km
RCS: 4.5252 m2 (large)
Launch date: December 12, 1985
Source: Commonwealth of Independent States (former USSR) (CIS)
Launch site: PLESETSK MISSILE AND SPACE COMPLEX (PKMTR)

Note: This is a ROCKET BODY
Your satellite tracking list
Your tracking list is empty




NASA's NSSDC Master Catalog

Two Line Element Set (TLE):
1 16327U 85113B   26193.55691266  .00000203  00000-0  20469-4 0  9998
2 16327  82.5314 232.4418 0017360 209.3559 264.9430 14.85907397172009
Source of the keplerian elements: AFSPC